[[{"header":{"parameterUnit":"m.s-1","parameterCategory":1,"la1":30.2991,"la2":30.254,"lo1":-89.0895,"lo2":-89.0444,"dy":0.0017,"dx":0.0017,"nx":28,"ny":28,"refTime":"2025-07-23T09:00:00:Z","depth":0,"parameterNumber":2,"parameterNumberName":"U-component_of_WINDS"},"data":[0,0,0,0,0,0,0,0,0,0,0,0,0,0,0,0,0,0,0,0,0,0,0,0,0,0,0,0,0,0,0,0,0,0,0,0,0,0,0,0,0,0,0,0,0,0,0,0,0,0,0,0,0,0,0,0,0,0,-2.9652,-2.9654,0,-2.9774,-2.9776,-2.9777,-2.9843,-2.9843,-2.9843,-2.9843,-2.9966,-2.9969,-2.9972,0,0,0,0,0,0,0,0,0,0,0,0,0,-2.9472,-2.9475,-2.9652,-2.9654,-2.9655,-2.9774,-2.9776,-2.9778,-2.9842,-2.9843,-2.9843,-2.9843,-2.9964,-2.9968,-2.9972,0,0,0,0,0,0,0,0,0,0,0,0,0,-2.9568,-2.9476,-2.9652,-2.9702,-2.9708,-2.9774,-2.9776,-2.9778,-2.9842,-2.9843,-2.9843,-2.9843,-2.9963,-2.9968,-2.9972,-2.9997,0,0,-2.9987,-2.9989,0,0,0,0,0,0,0,0,-2.9562,-2.9574,-2.9693,-2.9699,-2.9705,-2.9794,-2.9758,-2.9851,-2.9842,-2.9791,-2.9843,-2.9843,-2.9908,-2.9917,-2.994,-3.0003,-3.0008,-2.9987,-2.999,-2.9992,-2.9993,0,0,0,0,0,0,0,-2.9556,-2.957,-2.97,-2.9695,-2.9702,-2.9718,-2.9731,-2.9776,-2.9847,-2.9796,-2.9801,-2.9814,-2.9911,-2.9935,-2.9943,-3.001,-2.9987,-2.9991,-2.9994,-2.9996,-3.0099,-3.0099,0,0,0,0,0,0,-2.9541,-2.9564,-2.9697,-2.9704,-2.9633,-2.9721,-2.9736,-2.9765,-2.9847,-2.9859,-2.9814,-2.9817,-2.9927,-2.9937,-2.9947,-2.9982,-2.9992,-2.9996,-2.9999,-3.0099,-3.0099,-3.0099,0,0,0,0,0,0,-2.9537,-2.9553,-2.9692,-2.9635,-2.9654,-2.9724,-2.9755,-2.9767,-2.9791,-2.9861,-2.9873,-2.9825,-2.9927,-2.9941,-2.9984,-2.9987,-2.9999,-3.0003,-3.0099,-3.0099,-3.0099,-3.005,0,0,0,0,0,0,-2.9532,-2.9551,-2.9562,-2.9635,-2.9657,-2.9727,-2.9756,-2.9769,-2.9799,-2.9804,-2.9874,-2.9886,-2.9929,-2.9977,-2.9989,-2.9993,-3.0007,-3.01,-3.0099,-3.0099,-3.0052,-3.0048,-3.0045,0,0,0,0,0,-2.9525,-2.9543,-2.9562,-2.9578,-2.9672,-2.9727,-2.974,-2.9789,-2.9799,-2.981,-2.9855,-2.9884,-2.9985,-2.9981,-2.9995,-3.0001,-3.01,-3.0099,-3.0099,-3.0053,-3.0049,-3.0045,0,0,0,0,0,0,-2.9467,-2.9553,-2.9575,-2.9617,-2.9664,-2.9738,-2.9754,-2.9783,-2.9827,-2.983,-2.9888,-2.9903,-2.9941,-2.9976,-2.997,-3.0029,-3.0045,-3.0048,-3.0005,-3.0002,-2.9998,-2.9989,-3.001,0,0,0,0,0,-2.9459,-2.9497,-2.957,-2.96,-2.9623,-2.9684,-2.971,-2.9743,-2.9794,-2.9814,-2.9862,-2.991,-2.9952,-2.9979,-3.0022,-3.0057,-3.0073,-3.0068,-3.0064,-3.0061,-3.0063,-3.0083,-3.0082,-3.0099,-3.0099,-3.0099,0,0,-2.9443,-2.9495,-2.9515,-2.959,-2.963,-2.9668,-2.97,-2.9739,-2.9767,-2.982,-2.9864,-2.9901,-2.9958,-2.9997,-3.0017,-3.0027,-3.0062,-3.0061,-3.0058,-3.0062,-3.0083,-3.0081,-3.008,-3.0098,-3.0099,-3.0099,0,0,-2.9432,-2.9476,-2.9505,-2.9545,-2.9606,-2.9647,-2.9654,-2.9723,-2.975,-2.9795,-2.9836,-2.987,-2.9942,-2.998,-3.0009,-3.0013,-3.0041,-3.0025,-3.0008,-3.0027,-3.0026,-3.0025,-3.0026,-3.0025,-3.0026,-3.0026,-3.0026,0,-2.9404,-2.9464,-2.9516,-2.9553,-2.9584,-2.9634,-2.9664,-2.97,-2.9771,-2.9791,-2.9802,-2.9893,-2.9934,-2.9983,-2.9984,-3.0006,-3.0015,-3.0017,-3.0022,-3.0022,-3.0022,-3.0023,-3.0023,-3.0024,-3.0024,-3.0024,-3.0025,0,-2.9426,-2.9466,-2.9482,-2.9551,-2.9584,-2.9616,-2.9673,-2.97,-2.973,-2.9769,-2.9814,-2.9866,-2.992,-2.9935,-2.9965,-2.9987,-2.9992,-3.0011,-3.0029,-3.0017,-3.0019,-3.002,-3.0021,-3.0021,-3.0022,-3.0023,0,0,-2.9382,-2.9479,-2.9484,-2.9516,-2.9587,-2.9619,-2.9653,-2.9707,-2.9728,-2.9776,-2.9805,-2.9865,-2.9883,-2.9916,-2.9951,-2.9968,-2.9967,-2.9986,-2.9988,-2.998,-2.9994,-2.9979,-2.9978,-2.9986,-2.9986,-2.9987,-2.9989,0,-2.9382,-2.9447,-2.9495,-2.9541,-2.9579,-2.9627,-2.9657,-2.9703,-2.974,-2.9776,-2.9817,-2.9858,-2.988,-2.99,-2.9919,-2.9963,-2.997,-2.9963,-3.0013,-3.0014,-2.9997,-2.998,-2.9964,-2.9964,-2.999,-2.9991,-2.9991,0,-2.939,-2.9436,-2.9486,-2.9553,-2.957,-2.9597,-2.9649,-2.9684,-2.9737,-2.9762,-2.9799,-2.9835,-2.9872,-2.9886,-2.9938,-2.9932,-2.9956,-2.998,-2.9981,-2.9987,-3.0002,-2.9985,-2.9965,-2.9965,-2.9993,-2.9993,-2.9992,0,-2.9353,-2.9427,-2.9467,-2.9493,-2.9571,-2.9588,-2.9622,-2.9675,-2.9704,-2.975,-2.9769,-2.9818,-2.9844,-2.9881,-2.9929,-2.9935,-2.9976,-2.9994,-2.9997,-2.9996,-3.0004,-3.0002,-2.9986,-3.0019,-3.0019,-3.0019,-3.0019,0,-2.9347,-2.9375,-2.9451,-2.9475,-2.9508,-2.9563,-2.9594,-2.9631,-2.9678,-2.971,-2.9754,-2.9783,-2.9845,-2.988,-2.9918,-2.9955,-2.9967,-2.9988,-2.9997,-2.9984,-2.9981,-2.9999,-3.0,-3.0019,-3.0019,-3.0019,-3.0019,0,-2.9311,-2.9363,-2.9409,-2.948,-2.9498,-2.9519,-2.9579,-2.9604,-2.9644,-2.9683,-2.9695,-2.9757,-2.9802,-2.9853,-2.9914,-2.9939,-2.9973,-2.9987,-2.9955,-2.9961,-2.9961,-2.996,-2.9956,-2.9958,-2.9989,-2.9989,-2.9989,0,-2.9303,-2.9326,-2.94,-2.9424,-2.9457,-2.9496,-2.9526,-2.958,-2.9609,-2.9671,-2.9688,-2.9736,-2.9777,-2.9845,-2.9895,-2.9942,-2.9957,-2.9953,-2.9965,-2.995,-2.9957,-2.9954,-2.9957,-2.9949,-2.9949,-2.9948,-2.9948,0,-2.9284,-2.9309,-2.9351,-2.9401,-2.9435,-2.9477,-2.9521,-2.9539,-2.9602,-2.9632,-2.9678,-2.971,-2.9772,-2.9819,-2.9872,-2.9906,-2.9937,-2.9944,-2.9947,-2.9933,-2.9913,-2.9923,-2.9946,-2.9943,-2.9944,-2.9944,-2.9944,-2.9944,-2.9262,-2.9285,-2.934,-2.9384,-2.9423,-2.9463,-2.9489,-2.9532,-2.9572,-2.9628,-2.9657,-2.9703,-2.9754,-2.9829,-2.9861,-2.9897,-2.9908,-2.9912,-2.9914,-2.9914,-2.9909,-2.9908,-2.9907,-2.9907,-2.9907,-2.9908,-2.9908,0,-2.9245,-2.9283,-2.9323,-2.9383,-2.9418,-2.9445,-2.9495,-2.9522,-2.9562,-2.9608,-2.9647,-2.97,-2.9745,-2.9799,-2.9847,-2.9865,-2.9881,-2.9876,-2.9875,-2.9882,-2.9898,-2.989,-2.9863,-2.9863,-2.9863,-2.9863,-2.9863,-2.9863,-2.924,-2.928,-2.931,-2.9369,-2.9407,-2.9452,-2.9478,-2.9514,-2.9552,-2.9608,-2.9647,-2.9681,-2.973,-2.9783,-2.9825,-2.984,-2.9855,-2.9846,-2.9864,-2.9878,-2.9881,-2.9885,-2.9878,-2.9849,-2.9849,-2.9846,-2.9846,-2.9846]},{"header":{"parameterUnit":"m.s-1","parameterCategory":1,"la1":30.2991,"la2":30.254,"lo1":-89.0895,"lo2":-89.0444,"dy":0.0017,"dx":0.0017,"nx":28,"ny":28,"refTime":"2025-07-23T09:00:00:Z","depth":0,"parameterNumber":3,"parameterNumberName":"V-component_of_WINDS"},"data":[0,0,0,0,0,0,0,0,0,0,0,0,0,0,0,0,0,0,0,0,0,0,0,0,0,0,0,0,0,0,0,0,0,0,0,0,0,0,0,0,0,0,0,0,0,0,0,0,0,0,0,0,0,0,0,0,0,0,7.9344,7.9346,0,7.9532,7.9534,7.9536,7.9468,7.9464,7.9459,7.9455,7.964,7.9649,7.9657,0,0,0,0,0,0,0,0,0,0,0,0,0,7.8917,7.8925,7.9344,7.9346,7.9349,7.9532,7.9534,7.9537,7.9469,7.9463,7.9458,7.9453,7.9637,7.9648,7.9658,0,0,0,0,0,0,0,0,0,0,0,0,0,7.9104,7.8928,7.9343,7.9337,7.9338,7.9531,7.9534,7.9538,7.947,7.9463,7.9457,7.9451,7.9634,7.9647,7.966,7.9868,0,0,7.97,7.9706,0,0,0,0,0,0,0,0,7.9093,7.9119,7.9335,7.9338,7.9339,7.947,7.9451,7.9648,7.9471,7.942,7.9455,7.9448,7.9588,7.9605,7.9654,7.9877,7.9885,7.9701,7.9709,7.9715,7.9719,0,0,0,0,0,0,0,7.908,7.9111,7.9418,7.9339,7.9341,7.9322,7.9341,7.9488,7.9537,7.9423,7.9419,7.9443,7.9588,7.9641,7.9657,7.9887,7.9701,7.9713,7.9721,7.9726,8.0288,8.0295,0,0,0,0,0,0,7.9068,7.91,7.9412,7.9424,7.9198,7.9335,7.9356,7.9434,7.9535,7.9544,7.9448,7.9439,7.9621,7.9642,7.9664,7.9912,7.9715,7.9727,7.9735,8.0281,8.029,8.0297,0,0,0,0,0,0,7.9059,7.9096,7.9404,7.9261,7.9299,7.9349,7.9437,7.9442,7.9495,7.9554,7.9561,7.9494,7.9617,7.9645,7.9818,7.9918,7.9733,7.9745,8.0273,8.0284,8.0293,8.0412,0,0,0,0,0,0,7.9047,7.9093,7.9175,7.9264,7.9307,7.9558,7.9443,7.945,7.9519,7.9508,7.9599,7.9607,7.9614,7.9798,7.9831,7.9933,7.9756,8.0264,8.0278,8.029,8.04,8.0426,8.0448,0,0,0,0,0,7.9032,7.92,7.918,7.9217,7.9411,7.9564,7.9589,7.9596,7.9527,7.9608,7.9646,7.9604,7.9902,7.9817,7.9853,7.996,8.0258,8.0274,8.0289,8.0389,8.0421,8.0447,0,0,0,0,0,0,7.9119,7.9211,7.919,7.9392,7.9471,7.9552,7.9655,7.9629,7.9728,7.9714,7.9716,7.9737,7.9914,7.9955,7.9858,8.0166,8.0069,8.0093,8.0133,8.0163,8.0187,8.0172,7.9767,0,0,0,0,0,7.9162,7.9282,7.9355,7.9526,7.9568,7.9605,7.9672,7.9671,7.9752,7.9784,7.9834,7.9912,8.0023,8.0096,8.0201,8.0406,8.0423,8.0497,8.0521,8.0541,8.056,8.0669,8.0702,8.0349,8.0348,8.0348,0,0,7.9252,7.9317,7.9392,7.9546,7.9607,7.9728,7.9633,7.9766,7.9855,7.9803,7.9969,8.001,8.0096,8.0286,8.0371,8.0324,8.0662,8.0561,8.0576,8.0585,8.0689,8.0722,8.0752,8.0359,8.0357,8.0356,0,0,7.9476,7.954,7.9688,7.9752,7.9846,7.987,7.9906,7.9992,8.0017,8.0185,8.0148,8.0253,8.0444,8.0507,8.0564,8.0813,8.0777,8.0847,8.0971,8.1078,8.1105,8.113,8.1216,8.1247,8.0867,8.0867,8.0867,0,7.9575,7.9759,7.9767,7.9903,7.997,7.9932,8.0081,8.0141,8.0265,8.0311,8.0257,8.0496,8.0552,8.0754,8.0815,8.0864,8.0902,8.0835,8.1101,8.1126,8.1149,8.1231,8.1264,8.0875,8.0874,8.0873,8.0872,0,7.9873,8.0002,8.011,8.0232,8.0312,8.0454,8.048,8.056,8.0552,8.058,8.075,8.0816,8.0933,8.0982,8.0975,8.1183,8.1151,8.11,8.1002,8.1191,8.1267,8.1299,8.0886,8.0883,8.0881,8.0879,0,0,8.0156,8.0283,8.0322,8.0376,8.0478,8.0576,8.0715,8.0832,8.0899,8.0985,8.1099,8.1263,8.1216,8.1281,8.128,8.1374,8.1564,8.1311,8.1313,8.1354,8.1794,8.183,8.1867,8.1542,8.1548,8.1553,8.1786,0,8.0387,8.0634,8.0645,8.0868,8.0985,8.095,8.1071,8.1145,8.1175,8.1276,8.1309,8.1424,8.1355,8.1393,8.1485,8.1521,8.1652,8.1505,8.1645,8.165,8.1622,8.1907,8.1946,8.2163,8.1816,8.1822,8.1825,0,8.0689,8.0787,8.1023,8.1107,8.1156,8.1265,8.1372,8.1471,8.1553,8.1568,8.1641,8.1627,8.1766,8.1666,8.1856,8.1756,8.1814,8.1841,8.1849,8.186,8.1747,8.1923,8.2232,8.2264,8.1873,8.187,8.1866,0,8.0869,8.1059,8.1225,8.1273,8.1376,8.1452,8.1498,8.1575,8.1644,8.1737,8.1782,8.189,8.1948,8.203,8.2044,8.1971,8.2234,8.2136,8.2248,8.2247,8.2302,8.2298,8.2622,8.2345,8.2344,8.2343,8.2343,0,8.1123,8.1268,8.1307,8.1408,8.1568,8.1579,8.1736,8.1776,8.1844,8.195,8.1927,8.2027,8.2041,8.2143,8.2155,8.2309,8.2336,8.235,8.2351,8.2351,8.2349,8.2387,8.2371,8.2352,8.235,8.2348,8.2347,0,8.135,8.1382,8.1559,8.1643,8.1668,8.1782,8.1852,8.1947,8.1976,8.211,8.2142,8.2186,8.2305,8.2328,8.2469,8.2477,8.2659,8.2646,8.2632,8.263,8.2739,8.2728,8.3097,8.3145,8.2838,8.2841,8.2844,0,8.1509,8.162,8.1716,8.1787,8.1838,8.1952,8.2023,8.2037,8.2112,8.2214,8.2296,8.2414,8.2508,8.27,8.2742,8.2849,8.2837,8.2959,8.2852,8.2848,8.2835,8.2828,8.2837,8.2978,8.2981,8.2984,8.2986,0,8.1788,8.1798,8.1903,8.2014,8.21,8.2188,8.227,8.2329,8.2354,8.2438,8.2561,8.2635,8.2779,8.2895,8.3002,8.3045,8.302,8.302,8.3051,8.3051,8.3037,8.3043,8.2685,8.3011,8.3008,8.3006,8.3005,8.3004,8.1984,8.208,8.2163,8.228,8.2344,8.2422,8.2516,8.2557,8.266,8.278,8.2782,8.2916,8.2993,8.3135,8.3186,8.3288,8.3249,8.3295,8.3306,8.3317,8.3326,8.3023,8.3308,8.3307,8.3307,8.3306,8.3306,0,8.2258,8.2311,8.2419,8.2536,8.2628,8.2599,8.2689,8.2766,8.2885,8.2961,8.3055,8.3196,8.3308,8.336,8.3469,8.3542,8.3532,8.357,8.3563,8.3573,8.3355,8.3317,8.3575,8.3575,8.3575,8.3575,8.3575,8.3575,8.2412,8.2573,8.2593,8.2784,8.2835,8.2968,8.3021,8.3092,8.3152,8.3311,8.3405,8.3439,8.3505,8.3619,8.372,8.3732,8.3772,8.3815,8.3821,8.3616,8.3589,8.3562,8.3526,8.3824,8.3825,8.403,8.4032,8.4033]}]]